Location: B�hl
(48.6968°N, 8.1352°E)
Time: 05:57:29
(UTC+00:00)

Cosmos 2333 Rocket - Pass Details

Date: 08 March 2021
Orbit: 837 x 864 km, 70.8° (Epoch: 11 April)

Event Time Altitude Azimuth Distance (km) Brightness Sun altitude
Rises 19:30:00 0° 230° (SW) 3,399 5.8 -21.6°
Reaches altitude 10° 19:32:34 10° 237° (WSW) 2,471 5.1 -22.0°
Maximum altitude 19:37:56 42° 308° (NW) 1,202 3.4 -22.8°
Drops below altitude 10° 19:43:23 10° 19° (NNE) 2,502 4.7 -23.7°
Sets 19:46:00 0° 26° (NNE) 3,446 5.3 -24.1°
